AZV2560 VVCR-USTR

Flight info

Callsign AZV2560
Flight time N/A
Altitude 38000
Route KARAN1B KARAN W2 VIN A206 NALAO/N0467F380 A206 LPB B218 SAGAG/K0863S1160 A581 BIDRU L888 XKC A460 RULAD/K0859F380 N126 TDK Z160 BLH W333 GIREM N170 LUKUS W333 NEMKU N170 KRG Z588 KTU N170 BEBLU N167 MALIB DCT KEGIR KEGIR1M
Aircraft B763/H-SDE3FGHIM3RWXY/LB1

Departure

Time 2026-04-21 17:48
Airport Cam Ranh International Airport / Cam Ranh Air Base (VVCR)

Arrival

Time N/A
Airport Roshchino International Airport (USTR)
Time Latitude Longitude Altitude Speed Heading
2026-04-21 16:52 12.00803 109.21738 59 ft 0 kts 288°
2026-04-21 17:31 12.00799 109.21748 59 ft 2 kts 288°
2026-04-21 17:32 12.00796 109.21758 58 ft 2 kts 288°
2026-04-21 17:32 12.00790 109.21777 58 ft 2 kts 288°
2026-04-21 17:32 12.00785 109.21792 58 ft 2 kts 288°
2026-04-21 17:32 12.00780 109.21806 58 ft 2 kts 298°
2026-04-21 17:33 12.00771 109.21819 58 ft 2 kts 316°
2026-04-21 17:33 12.00760 109.21828 58 ft 2 kts 331°
2026-04-21 17:33 12.00746 109.21835 58 ft 2 kts 347°
2026-04-21 17:33 12.00731 109.21836 58 ft 2 kts
2026-04-21 17:34 12.00716 109.21834 58 ft 1 kts 18°
2026-04-21 17:34 12.00713 109.21833 58 ft 0 kts 20°
2026-04-21 17:39 12.00717 109.21835 58 ft 3 kts 18°
2026-04-21 17:39 12.00757 109.21847 58 ft 7 kts 18°
2026-04-21 17:39 12.00799 109.21862 58 ft 4 kts 19°
2026-04-21 17:39 12.00825 109.21881 58 ft 5 kts 57°
2026-04-21 17:40 12.00827 109.21935 58 ft 10 kts 104°
2026-04-21 17:40 12.00800 109.22012 58 ft 10 kts 116°
2026-04-21 17:40 12.00744 109.22024 58 ft 10 kts 191°
2026-04-21 17:40 12.00656 109.21993 58 ft 14 kts 199°
2026-04-21 17:41 12.00560 109.21961 58 ft 14 kts 199°
2026-04-21 17:41 12.00499 109.21940 58 ft 13 kts 199°
2026-04-21 17:41 12.00407 109.21907 58 ft 13 kts 199°
2026-04-21 17:41 12.00283 109.21864 58 ft 14 kts 199°
2026-04-21 17:42 12.00182 109.21829 58 ft 16 kts 199°
2026-04-21 17:42 12.00068 109.21790 58 ft 18 kts 199°
2026-04-21 17:42 11.99941 109.21745 59 ft 20 kts 198°
2026-04-21 17:42 11.99794 109.21694 59 ft 25 kts 199°
2026-04-21 17:43 11.99640 109.21640 59 ft 22 kts 198°
2026-04-21 17:43 11.99493 109.21590 59 ft 21 kts 199°
2026-04-21 17:43 11.99353 109.21541 59 ft 20 kts 199°
2026-04-21 17:43 11.99220 109.21495 59 ft 21 kts 199°
2026-04-21 17:44 11.99076 109.21444 59 ft 21 kts 196°
2026-04-21 17:44 11.98993 109.21416 59 ft 11 kts 200°
2026-04-21 17:44 11.98967 109.21408 59 ft 3 kts 173°
2026-04-21 17:44 11.98949 109.21468 59 ft 12 kts 80°
2026-04-21 17:45 11.99018 109.21574 59 ft 15 kts 52°
2026-04-21 17:45 11.99023 109.21581 59 ft 0 kts 53°
2026-04-21 17:46 11.99024 109.21582 59 ft 1 kts 53°
2026-04-21 17:46 11.99040 109.21603 59 ft 6 kts 53°
2026-04-21 17:46 11.99080 109.21659 59 ft 15 kts 54°
2026-04-21 17:46 11.99145 109.21703 59 ft 9 kts 18°
2026-04-21 17:47 11.99150 109.21704 59 ft 0 kts 19°
2026-04-21 17:47 11.99152 109.21705 59 ft 3 kts 19°
2026-04-21 17:48 11.99211 109.21725 59 ft 27 kts 18°
2026-04-21 17:48 11.99831 109.21938 58 ft 116 kts 19°
2026-04-21 17:48 12.00449 109.22156 71 ft 163 kts 17°
2026-04-21 17:48 12.01508 109.22501 655 ft 179 kts 15°
2026-04-21 17:49 12.02187 109.22710 1561 ft 156 kts 18°
2026-04-21 17:49 12.03285 109.23662 1848 ft 176 kts 73°
2026-04-21 17:49 12.03363 109.24508 1972 ft 188 kts 101°
2026-04-21 17:49 12.02683 109.25736 2109 ft 212 kts 140°
2026-04-21 17:50 12.01260 109.26373 2217 ft 241 kts 175°
2026-04-21 17:50 11.99019 109.25809 2855 ft 261 kts 206°
2026-04-21 17:50 11.97918 109.25226 3357 ft 265 kts 206°
2026-04-21 17:50 11.95722 109.24059 4344 ft 274 kts 207°
2026-04-21 17:51 11.94003 109.23148 5117 ft 280 kts 207°
2026-04-21 17:51 11.92274 109.22231 5902 ft 283 kts 211°
2026-04-21 17:51 11.91221 109.21423 6365 ft 287 kts 228°
2026-04-21 17:51 11.90202 109.19662 7089 ft 290 kts 256°
2026-04-21 17:52 11.90083 109.17628 7812 ft 291 kts 284°
2026-04-21 17:52 11.91337 109.15232 8780 ft 291 kts 320°
2026-04-21 17:52 11.92424 109.14460 9289 ft 289 kts 338°
2026-04-21 17:52 11.94356 109.14020 10029 ft 288 kts
2026-04-21 17:53 11.96361 109.14450 10351 ft 307 kts 23°
2026-04-21 17:53 11.98420 109.15398 10433 ft 336 kts 25°
2026-04-21 17:53 12.00582 109.16401 11036 ft 346 kts 25°
2026-04-21 17:53 12.02801 109.17436 11770 ft 352 kts 25°
2026-04-21 17:54 12.05025 109.18471 12440 ft 357 kts 26°
2026-04-21 17:54 12.07331 109.19500 13107 ft 364 kts 21°
2026-04-21 17:54 12.09850 109.20085 13760 ft 371 kts
2026-04-21 17:54 12.12467 109.20254 14514 ft 375 kts
2026-04-21 17:55 12.15078 109.20218 15204 ft 378 kts 359°
2026-04-21 17:55 12.17731 109.20084 15906 ft 382 kts 357°
2026-04-21 17:55 12.20419 109.19890 16601 ft 385 kts 356°
2026-04-21 17:55 12.23092 109.19667 17229 ft 388 kts 356°
2026-04-21 17:56 12.25820 109.19421 17877 ft 392 kts 355°
2026-04-21 17:56 12.28557 109.19167 18496 ft 395 kts 355°
2026-04-21 17:56 12.31319 109.18906 19129 ft 398 kts 355°
2026-04-21 17:56 12.34098 109.18640 19728 ft 401 kts 355°
2026-04-21 17:57 12.36869 109.18374 20314 ft 404 kts 355°
2026-04-21 17:57 12.39729 109.18098 20875 ft 408 kts 355°
2026-04-21 17:57 12.42576 109.17825 21435 ft 411 kts 355°
2026-04-21 17:57 12.46404 109.17455 22131 ft 414 kts 355°
2026-04-21 17:58 12.48333 109.17270 22462 ft 416 kts 355°
2026-04-21 17:58 12.51270 109.16986 22949 ft 420 kts 355°
2026-04-21 17:58 12.54209 109.16702 23487 ft 421 kts 355°
2026-04-21 17:58 12.57175 109.16415 23933 ft 424 kts 355°
2026-04-21 17:59 12.60118 109.16131 24388 ft 427 kts 355°
2026-04-21 17:59 12.63100 109.15843 24818 ft 430 kts 355°
2026-04-21 17:59 12.66099 109.15562 25298 ft 431 kts 356°
2026-04-21 17:59 12.70150 109.15215 25889 ft 434 kts 356°
2026-04-21 18:00 12.72150 109.15042 26173 ft 435 kts 356°
2026-04-21 18:00 12.75228 109.14777 26576 ft 438 kts 356°
2026-04-21 18:00 12.78259 109.14515 26999 ft 440 kts 356°
2026-04-21 18:00 12.81365 109.14247 27342 ft 444 kts 356°
2026-04-21 18:01 12.84473 109.13978 27711 ft 446 kts 356°
2026-04-21 18:01 12.87574 109.13710 28140 ft 447 kts 356°
2026-04-21 18:01 12.90744 109.13436 28474 ft 451 kts 356°
2026-04-21 18:01 12.93882 109.13164 28882 ft 452 kts 356°
2026-04-21 18:02 12.97010 109.12893 29241 ft 454 kts 356°
2026-04-21 18:02 13.00186 109.12618 29637 ft 455 kts 356°
2026-04-21 18:02 13.03373 109.12342 29946 ft 458 kts 356°
2026-04-21 18:02 13.06600 109.12063 30334 ft 458 kts 356°
2026-04-21 18:03 13.09791 109.11787 30626 ft 460 kts 355°
2026-04-21 18:03 13.12997 109.11509 30906 ft 462 kts 355°
2026-04-21 18:03 13.16233 109.11228 31306 ft 461 kts 355°
2026-04-21 18:03 13.20504 109.10858 31949 ft 457 kts 355°
2026-04-21 18:04 13.22608 109.10675 32309 ft 454 kts 355°
2026-04-21 18:04 13.25774 109.10400 32746 ft 452 kts 355°
2026-04-21 18:04 13.28925 109.10127 33218 ft 450 kts 355°
2026-04-21 18:04 13.32071 109.09852 33542 ft 451 kts 355°
2026-04-21 18:05 13.35234 109.09575 33897 ft 451 kts 355°
2026-04-21 18:05 13.38423 109.09296 34305 ft 449 kts 355°
2026-04-21 18:05 13.41555 109.09023 34588 ft 450 kts 355°
2026-04-21 18:05 13.44717 109.08746 34963 ft 449 kts 355°
2026-04-21 18:06 13.47860 109.08471 35285 ft 448 kts 355°
2026-04-21 18:06 13.50971 109.08198 35544 ft 448 kts 355°
2026-04-21 18:06 13.54113 109.07922 35763 ft 449 kts 355°
2026-04-21 18:06 13.57248 109.07648 36097 ft 447 kts 355°
2026-04-21 18:07 13.60363 109.07375 36404 ft 446 kts 355°
2026-04-21 18:07 13.63458 109.07103 36609 ft 446 kts 355°
2026-04-21 18:07 13.66604 109.06827 36798 ft 447 kts 355°
2026-04-21 18:07 13.69725 109.06554 36982 ft 447 kts 355°
2026-04-21 18:08 13.72852 109.06279 37187 ft 447 kts 355°
2026-04-21 18:08 13.75980 109.06004 37373 ft 447 kts 355°
2026-04-21 18:08 13.79112 109.05730 37569 ft 447 kts 355°
2026-04-21 18:08 13.82206 109.05458 37710 ft 447 kts 355°
2026-04-21 18:09 13.85305 109.05186 37842 ft 446 kts 355°
2026-04-21 18:09 13.88450 109.04909 37852 ft 443 kts 355°
2026-04-21 18:09 13.94665 109.04351 37846 ft 443 kts 353°
2026-04-21 18:10 14.00764 109.03082 37837 ft 443 kts 348°
2026-04-21 18:10 14.06791 109.01711 37837 ft 442 kts 348°
2026-04-21 18:11 14.12909 109.00304 37854 ft 443 kts 348°
2026-04-21 18:11 14.18986 108.98901 37851 ft 442 kts 348°
2026-04-21 18:12 14.24995 108.97506 37853 ft 442 kts 348°
2026-04-21 18:12 14.31064 108.96106 37862 ft 442 kts 348°
2026-04-21 18:13 14.37095 108.94711 37871 ft 441 kts 348°
2026-04-21 18:13 14.43107 108.93319 37882 ft 442 kts 348°
2026-04-21 18:14 14.52187 108.91214 37907 ft 441 kts 348°
2026-04-21 18:15 14.58203 108.89819 37886 ft 442 kts 348°
2026-04-21 18:15 14.64215 108.88423 37876 ft 442 kts 348°
2026-04-21 18:16 14.70269 108.87017 37870 ft 441 kts 348°
2026-04-21 18:16 14.76274 108.85622 37864 ft 441 kts 348°
2026-04-21 18:17 14.82276 108.84225 37869 ft 440 kts 348°
2026-04-21 18:17 14.88284 108.82828 37855 ft 439 kts 348°
2026-04-21 18:18 14.94263 108.81437 37860 ft 440 kts 348°
2026-04-21 18:18 15.00293 108.80031 37849 ft 441 kts 348°
2026-04-21 18:19 15.06272 108.78634 37838 ft 441 kts 348°
2026-04-21 18:19 15.12275 108.77230 37842 ft 441 kts 348°
2026-04-21 18:20 15.18298 108.75822 37847 ft 440 kts 348°
2026-04-21 18:20 15.24250 108.74429 37855 ft 440 kts 348°
2026-04-21 18:21 15.30277 108.73018 37834 ft 441 kts 348°
2026-04-21 18:21 15.36271 108.71613 37845 ft 440 kts 348°
2026-04-21 18:22 15.42065 108.69431 37858 ft 444 kts 331°
2026-04-21 18:22 15.47163 108.65706 37832 ft 447 kts 326°
2026-04-21 18:23 15.52190 108.61803 37842 ft 446 kts 325°
2026-04-21 18:23 15.57137 108.57919 37843 ft 445 kts 325°
2026-04-21 18:24 15.62058 108.54043 37844 ft 446 kts 325°
2026-04-21 18:24 15.67018 108.50128 37838 ft 446 kts 325°
2026-04-21 18:25 15.71983 108.46207 37847 ft 446 kts 325°
2026-04-21 18:25 15.76928 108.42298 37841 ft 447 kts 325°
2026-04-21 18:26 15.81904 108.38362 37836 ft 445 kts 325°
2026-04-21 18:26 15.86826 108.34467 37839 ft 444 kts 324°
2026-04-21 18:27 15.91780 108.30544 37830 ft 446 kts 324°
2026-04-21 18:27 15.96739 108.26614 37822 ft 446 kts 324°
2026-04-21 18:28 16.01692 108.22687 37831 ft 446 kts 324°
2026-04-21 18:28 16.06221 108.18329 37860 ft 450 kts 310°
2026-04-21 18:29 16.10019 108.13075 37851 ft 451 kts 309°
2026-04-21 18:29 16.13758 108.07819 37861 ft 451 kts 309°
2026-04-21 18:30 16.17456 108.02586 37862 ft 451 kts 309°
2026-04-21 18:30 16.21195 107.97285 37860 ft 451 kts 309°
2026-04-21 18:31 16.24894 107.92030 37855 ft 449 kts 309°
2026-04-21 18:31 16.28583 107.86787 37842 ft 448 kts 309°
2026-04-21 18:32 16.32274 107.81538 37840 ft 449 kts 309°
2026-04-21 18:32 16.35969 107.76280 37837 ft 449 kts 308°
2026-04-21 18:33 16.39713 107.71078 37832 ft 447 kts 314°
2026-04-21 18:33 16.44300 107.66753 37817 ft 445 kts 321°
2026-04-21 18:34 16.49078 107.62580 37811 ft 445 kts 322°
2026-04-21 18:34 16.53887 107.58439 37819 ft 444 kts 322°
2026-04-21 18:35 16.58664 107.54333 37810 ft 444 kts 322°
2026-04-21 18:35 16.63451 107.50217 37802 ft 443 kts 322°
2026-04-21 18:36 16.68198 107.46135 37806 ft 444 kts 322°
2026-04-21 18:36 16.72965 107.42033 37800 ft 444 kts 322°
2026-04-21 18:37 16.77745 107.37917 37789 ft 443 kts 321°
2026-04-21 18:37 16.82514 107.33808 37788 ft 443 kts 321°
2026-04-21 18:38 16.87264 107.29712 37770 ft 443 kts 321°
2026-04-21 18:38 16.92050 107.25583 37773 ft 443 kts 321°
2026-04-21 18:39 16.96802 107.21481 37763 ft 444 kts 321°
2026-04-21 18:39 17.01550 107.17379 37769 ft 444 kts 321°
2026-04-21 18:40 17.06302 107.13271 37762 ft 442 kts 321°
2026-04-21 18:40 17.11083 107.09134 37762 ft 442 kts 321°
2026-04-21 18:41 17.15822 107.05032 37764 ft 444 kts 321°
2026-04-21 18:41 17.20575 107.00914 37763 ft 443 kts 321°
2026-04-21 18:42 17.25356 106.96769 37762 ft 443 kts 321°
2026-04-21 18:42 17.30086 106.92666 37763 ft 443 kts 321°
2026-04-21 18:43 17.34828 106.88550 37763 ft 443 kts 321°
2026-04-21 18:43 17.39611 106.84395 37766 ft 441 kts 321°
2026-04-21 18:44 17.44337 106.80286 37766 ft 442 kts 320°
2026-04-21 18:44 17.49101 106.76141 37766 ft 443 kts 321°
2026-04-21 18:45 17.53843 106.72014 37772 ft 443 kts 321°
2026-04-21 18:45 17.58604 106.67866 37775 ft 444 kts 321°
2026-04-21 18:46 17.63363 106.63718 37769 ft 443 kts 320°
2026-04-21 18:46 17.68094 106.59590 37765 ft 443 kts 320°
2026-04-21 18:47 17.72814 106.55467 37752 ft 442 kts 320°
2026-04-21 18:47 17.77542 106.51333 37752 ft 442 kts 320°
2026-04-21 18:48 17.82295 106.47174 37744 ft 442 kts 320°
2026-04-21 18:48 17.87013 106.43044 37748 ft 442 kts 320°
2026-04-21 18:49 17.91762 106.38882 37751 ft 442 kts 320°
2026-04-21 18:49 17.95697 106.35432 37753 ft 443 kts 320°
2026-04-21 18:50 18.01242 106.30567 37755 ft 442 kts 320°
2026-04-21 18:50 18.05976 106.26410 37754 ft 442 kts 320°
2026-04-21 18:51 18.10693 106.22266 37755 ft 441 kts 320°
2026-04-21 18:51 18.15400 106.18126 37753 ft 441 kts 320°
2026-04-21 18:52 18.20110 106.13981 37745 ft 441 kts 320°
2026-04-21 18:52 18.24845 106.09811 37745 ft 441 kts 320°
2026-04-21 18:53 18.29540 106.05673 37747 ft 442 kts 320°
2026-04-21 18:53 18.34284 106.01490 37741 ft 442 kts 320°
2026-04-21 18:54 18.38984 105.97341 37735 ft 440 kts 320°
2026-04-21 18:54 18.43687 105.93188 37738 ft 440 kts 320°
2026-04-21 18:55 18.48367 105.89050 37741 ft 440 kts 320°
2026-04-21 18:55 18.53069 105.84892 37743 ft 441 kts 319°
2026-04-21 18:56 18.57759 105.80740 37744 ft 440 kts 320°
2026-04-21 18:56 18.62469 105.76567 37745 ft 440 kts 319°
2026-04-21 18:57 18.67176 105.72395 37747 ft 439 kts 319°
2026-04-21 18:57 18.71667 105.68056 37744 ft 438 kts 309°
2026-04-21 18:58 18.74754 105.62483 37759 ft 440 kts 292°
2026-04-21 18:58 18.76939 105.56454 37734 ft 441 kts 292°
2026-04-21 18:59 18.79068 105.50378 37737 ft 440 kts 291°
2026-04-21 18:59 18.81157 105.44331 37744 ft 440 kts 291°
2026-04-21 19:00 18.83238 105.38273 37737 ft 439 kts 291°
2026-04-21 19:00 18.85316 105.32207 37751 ft 439 kts 291°
2026-04-21 19:01 18.87396 105.26126 37751 ft 438 kts 291°
2026-04-21 19:01 18.89465 105.20072 37745 ft 437 kts 291°
2026-04-21 19:02 18.91522 105.14043 37756 ft 438 kts 291°
2026-04-21 19:02 18.93598 105.07955 37751 ft 438 kts 291°
2026-04-21 19:03 18.95644 105.01945 37751 ft 438 kts 290°
2026-04-21 19:03 18.97707 104.95875 37752 ft 438 kts 290°
2026-04-21 19:04 18.99756 104.89841 37765 ft 437 kts 290°
2026-04-21 19:04 19.01822 104.83752 37765 ft 438 kts 291°
2026-04-21 19:05 19.03857 104.77746 37790 ft 437 kts 291°
2026-04-21 19:05 19.05902 104.71702 37819 ft 438 kts 290°
2026-04-21 19:06 19.07946 104.65655 37877 ft 437 kts 290°
2026-04-21 19:06 19.09990 104.59600 37906 ft 438 kts 290°
2026-04-21 19:07 19.12057 104.53468 37907 ft 439 kts 290°
2026-04-21 19:07 19.14100 104.47402 37941 ft 438 kts 290°
2026-04-21 19:08 19.16142 104.41331 37947 ft 438 kts 291°
2026-04-21 19:08 19.18187 104.35244 37915 ft 439 kts 291°
2026-04-21 19:09 19.20226 104.29167 37924 ft 438 kts 290°
2026-04-21 19:09 19.22262 104.23089 37942 ft 438 kts 290°
2026-04-21 19:10 19.24293 104.17021 37968 ft 438 kts 290°
2026-04-21 19:10 19.26330 104.10926 37996 ft 438 kts 290°
2026-04-21 19:11 19.28358 104.04852 38031 ft 438 kts 290°
2026-04-21 19:11 19.30386 103.98771 38076 ft 437 kts 290°
2026-04-21 19:12 19.32412 103.92687 38072 ft 439 kts 290°
2026-04-21 19:12 19.34397 103.86606 38061 ft 438 kts 290°
2026-04-21 19:13 19.36392 103.80481 38053 ft 436 kts 290°
2026-04-21 19:13 19.38372 103.74397 38036 ft 436 kts 290°
2026-04-21 19:14 19.40345 103.68327 38032 ft 436 kts 290°
2026-04-21 19:14 19.42326 103.62224 38029 ft 436 kts 289°
2026-04-21 19:15 19.44371 103.56177 38028 ft 436 kts 290°
2026-04-21 19:15 19.46431 103.50136 38023 ft 436 kts 290°
2026-04-21 19:16 19.48478 103.44122 38021 ft 436 kts 290°
2026-04-21 19:16 19.50545 103.38044 38018 ft 435 kts 290°
2026-04-21 19:17 19.53626 103.28970 38024 ft 436 kts 290°
2026-04-21 19:17 19.55662 103.22965 38018 ft 435 kts 290°
2026-04-21 19:18 19.57716 103.16896 38019 ft 435 kts 290°
2026-04-21 19:18 19.59755 103.10867 38004 ft 435 kts 290°
2026-04-21 19:19 19.61798 103.04818 38000 ft 435 kts 290°
2026-04-21 19:19 19.63833 102.98783 37986 ft 434 kts 290°
2026-04-21 19:20 19.65863 102.92760 37977 ft 434 kts 290°
2026-04-21 19:20 19.67889 102.86736 37971 ft 435 kts 290°
2026-04-21 19:21 19.69932 102.80659 37964 ft 435 kts 290°
2026-04-21 19:21 19.71949 102.74649 37961 ft 435 kts 290°
2026-04-21 19:22 19.73971 102.68617 37968 ft 434 kts 290°
2026-04-21 19:22 19.75993 102.62577 37981 ft 434 kts 289°
2026-04-21 19:23 19.78018 102.56522 37993 ft 435 kts 289°
2026-04-21 19:23 19.80037 102.50478 38006 ft 434 kts 289°
2026-04-21 19:24 19.82053 102.44433 37976 ft 435 kts 289°
2026-04-21 19:24 19.84071 102.38375 37934 ft 435 kts 289°
2026-04-21 19:25 19.86081 102.32332 37896 ft 435 kts 289°
2026-04-21 19:25 19.88092 102.26281 37860 ft 433 kts 289°
2026-04-21 19:26 19.90758 102.20557 37863 ft 434 kts 306°
2026-04-21 19:26 19.95139 102.16086 37867 ft 442 kts 324°
2026-04-21 19:27 20.00686 102.13223 37864 ft 447 kts 334°
2026-04-21 19:27 20.06472 102.10699 37883 ft 445 kts 335°
2026-04-21 19:28 20.12229 102.08229 37904 ft 444 kts 335°
2026-04-21 19:28 20.17994 102.05767 37920 ft 445 kts 335°
2026-04-21 19:29 20.23759 102.03308 37927 ft 446 kts 334°
2026-04-21 19:29 20.29532 102.00845 37926 ft 446 kts 334°
2026-04-21 19:30 20.35312 101.98377 37918 ft 445 kts 334°
2026-04-21 19:30 20.41044 101.95927 37916 ft 444 kts 334°
2026-04-21 19:31 20.46798 101.93467 37909 ft 443 kts 334°
2026-04-21 19:31 20.52557 101.91002 37913 ft 445 kts 334°
2026-04-21 19:32 20.58329 101.88530 37927 ft 445 kts 334°
2026-04-21 19:32 20.64083 101.86063 37932 ft 445 kts 334°
2026-04-21 19:33 20.69839 101.83594 37944 ft 446 kts 334°
2026-04-21 19:33 20.75604 101.81118 37938 ft 446 kts 334°
2026-04-21 19:34 20.81381 101.78636 37931 ft 445 kts 334°
2026-04-21 19:34 20.87119 101.76169 37922 ft 444 kts 334°
2026-04-21 19:35 20.95769 101.72443 37929 ft 444 kts 334°
2026-04-21 19:36 21.01523 101.69964 37938 ft 445 kts 334°
2026-04-21 19:36 21.07296 101.67474 37942 ft 446 kts 334°
2026-04-21 19:37 21.13056 101.64987 37944 ft 444 kts 334°
2026-04-21 19:37 21.18795 101.62508 37952 ft 445 kts 334°
2026-04-21 19:38 21.24561 101.60042 37957 ft 445 kts 334°
2026-04-21 19:38 21.30317 101.57580 37967 ft 445 kts 334°
2026-04-21 19:39 21.36062 101.55121 37969 ft 445 kts 333°
2026-04-21 19:39 21.41818 101.52654 37969 ft 445 kts 334°
2026-04-21 19:40 21.47584 101.50182 37959 ft 445 kts 333°
2026-04-21 19:40 21.53352 101.47707 37963 ft 445 kts 333°
2026-04-21 19:41 21.59142 101.45220 37973 ft 446 kts 333°
2026-04-21 19:41 21.64906 101.42742 37992 ft 445 kts 333°
2026-04-21 19:42 21.70670 101.40262 38005 ft 444 kts 333°
2026-04-21 19:42 21.76440 101.37777 38021 ft 445 kts 333°
2026-04-21 19:43 21.82218 101.35287 37975 ft 446 kts 333°
2026-04-21 19:43 21.88019 101.32784 37959 ft 446 kts 333°
2026-04-21 19:44 21.93787 101.30296 37922 ft 445 kts 333°
2026-04-21 19:44 21.99537 101.27821 37908 ft 445 kts 332°
2026-04-21 19:45 22.05297 101.25339 37909 ft 445 kts 332°
2026-04-21 19:45 22.11059 101.22856 37910 ft 444 kts 332°
2026-04-21 19:46 22.16827 101.20366 37920 ft 443 kts 332°
2026-04-21 19:46 22.22575 101.17883 37941 ft 443 kts 332°
2026-04-21 19:47 22.28314 101.15402 37946 ft 443 kts 332°
2026-04-21 19:47 22.34061 101.12914 37945 ft 444 kts 332°
2026-04-21 19:48 22.39800 101.10429 37961 ft 445 kts 332°
2026-04-21 19:48 22.45556 101.07934 37971 ft 444 kts 332°
2026-04-21 19:49 22.51261 101.05459 37978 ft 442 kts 332°
2026-04-21 19:49 22.57015 101.02959 37991 ft 444 kts 332°
2026-04-21 19:50 22.62752 101.00465 38004 ft 442 kts 332°
2026-04-21 19:50 22.68447 100.97988 38032 ft 442 kts 331°
2026-04-21 19:51 22.74372 100.95808 38048 ft 452 kts 338°
2026-04-21 19:51 22.80468 100.94030 38051 ft 450 kts 338°
2026-04-21 19:52 22.86499 100.92280 38072 ft 449 kts 338°
2026-04-21 19:52 22.92578 100.90519 38069 ft 450 kts 338°
2026-04-21 19:53 22.98627 100.88767 38093 ft 450 kts 338°
2026-04-21 19:53 23.04705 100.87008 38105 ft 449 kts 338°
2026-04-21 19:54 23.10752 100.85254 38105 ft 448 kts 337°
2026-04-21 19:54 23.16806 100.83497 38108 ft 449 kts 338°
2026-04-21 19:55 23.22844 100.81743 38119 ft 448 kts 337°
2026-04-21 19:55 23.28902 100.79981 38122 ft 448 kts 337°
2026-04-21 19:56 23.34924 100.78230 38115 ft 446 kts 337°
2026-04-21 19:56 23.40937 100.76477 38099 ft 446 kts 337°
2026-04-21 19:57 23.46953 100.74724 38072 ft 446 kts 337°
2026-04-21 19:57 23.52961 100.72970 38066 ft 445 kts 337°
2026-04-21 19:58 23.58946 100.71221 38078 ft 447 kts 337°
2026-04-21 19:58 23.64988 100.69456 38090 ft 445 kts 337°
2026-04-21 19:59 23.70959 100.67707 38098 ft 446 kts 337°
2026-04-21 19:59 23.76979 100.65943 38099 ft 446 kts 336°
2026-04-21 20:00 23.82926 100.64201 38088 ft 443 kts 336°
2026-04-21 20:00 23.88896 100.62447 38082 ft 442 kts 336°
2026-04-21 20:01 23.94848 100.60698 38066 ft 443 kts 336°
2026-04-21 20:01 24.00842 100.58935 38066 ft 444 kts 336°
2026-04-21 20:02 24.06831 100.57173 38065 ft 443 kts 336°
2026-04-21 20:02 24.12789 100.55418 38052 ft 444 kts 336°
2026-04-21 20:03 24.18747 100.53675 38036 ft 441 kts 336°
2026-04-21 20:03 24.24717 100.51925 38025 ft 441 kts 336°
2026-04-21 20:04 24.30652 100.50185 38015 ft 441 kts 336°
2026-04-21 20:04 24.36565 100.48450 38023 ft 438 kts 336°
2026-04-21 20:05 24.42471 100.46712 38037 ft 440 kts 336°
2026-04-21 20:05 24.48385 100.44974 38042 ft 439 kts 336°
2026-04-21 20:06 24.54307 100.43230 38055 ft 438 kts 336°
2026-04-21 20:06 24.60221 100.41482 38076 ft 439 kts 336°
2026-04-21 20:07 24.66125 100.39737 38081 ft 438 kts 336°
2026-04-21 20:07 24.72018 100.37991 38084 ft 437 kts 336°
2026-04-21 20:08 24.77891 100.36251 38073 ft 437 kts 336°
2026-04-21 20:08 24.83810 100.34494 38095 ft 438 kts 335°
2026-04-21 20:09 24.89698 100.32746 38093 ft 437 kts 335°
2026-04-21 20:09 24.95539 100.31011 38095 ft 433 kts 335°
2026-04-21 20:10 25.01378 100.29273 38108 ft 433 kts 335°
2026-04-21 20:10 25.07273 100.27524 38111 ft 437 kts 335°
2026-04-21 20:11 25.13151 100.25794 38110 ft 434 kts 335°
2026-04-21 20:11 25.18985 100.24073 38109 ft 434 kts 335°
2026-04-21 20:12 25.24818 100.22352 38105 ft 434 kts 335°
2026-04-21 20:12 25.30688 100.20618 38109 ft 437 kts 335°
2026-04-21 20:13 25.36579 100.18877 38108 ft 434 kts 335°
2026-04-21 20:13 25.42419 100.17148 38110 ft 433 kts 335°
2026-04-21 20:14 25.48284 100.15408 38122 ft 437 kts 335°
2026-04-21 20:14 25.54176 100.13662 38127 ft 435 kts 335°
2026-04-21 20:15 25.60029 100.11925 38140 ft 433 kts 335°
2026-04-21 20:15 25.65844 100.10196 38170 ft 435 kts 334°
2026-04-21 20:16 25.71718 100.08449 38191 ft 433 kts 334°
2026-04-21 20:16 25.77537 100.06715 38204 ft 435 kts 335°
2026-04-21 20:17 25.83410 100.04965 38208 ft 433 kts 334°
2026-04-21 20:17 25.89216 100.03232 38220 ft 433 kts 334°
2026-04-21 20:18 25.95085 100.01479 38242 ft 434 kts 334°
2026-04-21 20:18 26.01044 100.00107 38269 ft 451 kts 346°
2026-04-21 20:19 26.07433 100.00026 38247 ft 456 kts 349°
2026-04-21 20:19 26.13779 100.00007 38249 ft 457 kts 349°
2026-04-21 20:20 26.20154 100.00005 38231 ft 453 kts 349°
2026-04-21 20:20 26.26514 100.00000 38224 ft 456 kts 349°
2026-04-21 20:21 26.32890 100.00000 38255 ft 459 kts 348°
2026-04-21 20:21 26.39323 99.99999 38287 ft 460 kts 348°
2026-04-21 20:22 26.45722 100.00001 38330 ft 458 kts 348°
2026-04-21 20:22 26.55272 100.00000 38328 ft 458 kts 348°
2026-04-21 20:23 26.61631 100.00002 38302 ft 456 kts 348°
2026-04-21 20:23 26.67969 100.00001 38295 ft 455 kts 348°
2026-04-21 20:24 26.74354 100.00000 38278 ft 458 kts 348°
2026-04-21 20:24 26.80753 99.99998 38275 ft 460 kts 348°
2026-04-21 20:25 26.87200 100.00001 38264 ft 459 kts 348°
2026-04-21 20:25 26.93597 99.99999 38273 ft 461 kts 348°
2026-04-21 20:26 27.00048 100.00000 38288 ft 462 kts 348°
2026-04-21 20:26 27.06461 100.00000 38306 ft 462 kts 348°
2026-04-21 20:27 27.12905 100.00003 38302 ft 456 kts 348°
2026-04-21 20:27 27.19272 100.00001 38339 ft 458 kts 347°
2026-04-21 20:28 27.25689 100.00001 38351 ft 458 kts 347°
2026-04-21 20:28 27.32014 100.00002 38371 ft 455 kts 347°
2026-04-21 20:29 27.38413 99.99999 38402 ft 458 kts 347°
2026-04-21 20:29 27.44776 100.00001 38409 ft 455 kts 347°
2026-04-21 20:30 27.51093 100.00001 38424 ft 454 kts 347°
2026-04-21 20:30 27.57459 99.99999 38417 ft 456 kts 347°
2026-04-21 20:31 27.63780 100.00002 38423 ft 455 kts 346°
2026-04-21 20:31 27.70124 100.00003 38430 ft 449 kts 346°
2026-04-21 20:32 27.76367 100.00000 38440 ft 452 kts 346°
2026-04-21 20:32 27.82729 99.99998 38445 ft 455 kts 346°
2026-04-21 20:33 27.89040 100.00003 38435 ft 450 kts 346°
2026-04-21 20:33 27.95332 100.00001 38465 ft 450 kts 346°
2026-04-21 20:34 28.01639 99.99999 38461 ft 451 kts 346°
2026-04-21 20:34 28.07925 100.00001 38473 ft 448 kts 346°
2026-04-21 20:35 28.14165 100.00000 38471 ft 449 kts 345°
2026-04-21 20:35 28.20498 99.99998 38471 ft 450 kts 346°
2026-04-21 20:36 28.26711 100.00003 38478 ft 445 kts 346°
2026-04-21 20:36 28.32927 99.99999 38479 ft 447 kts 345°
2026-04-21 20:37 28.39184 99.99998 38465 ft 451 kts 345°
2026-04-21 20:37 28.45476 99.99998 38467 ft 453 kts 346°
2026-04-21 20:38 28.51730 100.00005 38453 ft 443 kts 345°
2026-04-21 20:38 28.57923 100.00000 38462 ft 446 kts 345°
2026-04-21 20:39 28.64164 100.00000 38500 ft 444 kts 345°
2026-04-21 20:39 28.70366 99.99998 38526 ft 449 kts 345°
2026-04-21 20:40 28.76602 99.99999 38535 ft 447 kts 345°
2026-04-21 20:40 28.82882 99.99997 38539 ft 451 kts 345°
2026-04-21 20:41 28.89183 99.99999 38527 ft 451 kts 345°
2026-04-21 20:41 28.95482 100.00000 38501 ft 449 kts 345°
2026-04-21 20:42 29.01754 99.99998 38499 ft 452 kts 345°
2026-04-21 20:42 29.08056 100.00003 38497 ft 445 kts 345°
2026-04-21 20:43 29.14212 100.00002 38525 ft 440 kts 345°
2026-04-21 20:43 29.20374 99.99998 38538 ft 445 kts 345°
2026-04-21 20:44 29.26608 99.99998 38543 ft 448 kts 345°
2026-04-21 20:44 29.32863 99.99999 38532 ft 450 kts 345°
2026-04-21 20:45 29.39153 99.99999 38536 ft 450 kts 345°
2026-04-21 20:45 29.45448 99.99998 38540 ft 452 kts 345°
2026-04-21 20:46 29.51704 100.00002 38536 ft 449 kts 345°
2026-04-21 20:46 29.58023 99.99998 38543 ft 452 kts 345°
2026-04-21 20:47 29.64324 100.00000 38553 ft 451 kts 346°
2026-04-21 20:47 29.70563 99.99998 38571 ft 452 kts 346°
2026-04-21 20:48 29.76908 99.99997 38586 ft 456 kts 346°
2026-04-21 20:48 29.83250 100.00002 38566 ft 452 kts 346°
2026-04-21 20:49 29.89545 100.00002 38574 ft 449 kts 346°
2026-04-21 20:49 29.95817 99.99999 38576 ft 452 kts 346°
2026-04-21 20:50 30.02186 99.99998 38592 ft 454 kts 346°
2026-04-21 20:50 30.08538 99.99998 38585 ft 457 kts 346°
2026-04-21 20:51 30.14898 99.99999 38580 ft 458 kts 346°
2026-04-21 20:51 30.21312 99.99998 38580 ft 457 kts 346°
2026-04-21 20:52 30.27698 100.00000 38571 ft 456 kts 347°
2026-04-21 20:52 30.33995 100.00000 38590 ft 454 kts 346°
2026-04-21 20:53 30.40329 100.00003 38583 ft 449 kts 346°
2026-04-21 20:53 30.46615 99.99998 38573 ft 453 kts 347°
2026-04-21 20:54 30.52934 100.00000 38574 ft 454 kts 347°
2026-04-21 20:54 30.59269 99.99998 38560 ft 454 kts 347°
2026-04-21 20:55 30.65636 99.99998 38554 ft 454 kts 347°
2026-04-21 20:55 30.71996 99.99999 38541 ft 456 kts 347°
2026-04-21 20:56 30.78364 99.99999 38545 ft 458 kts 347°
2026-04-21 20:56 30.84700 100.00002 38532 ft 454 kts 347°
2026-04-21 20:57 30.91053 99.99998 38553 ft 456 kts 347°
2026-04-21 20:57 30.97475 99.99998 38561 ft 458 kts 347°
2026-04-21 20:58 31.03826 99.99999 38556 ft 457 kts 348°
2026-04-21 20:58 31.10229 99.99998 38598 ft 459 kts 348°
2026-04-21 20:59 31.16647 99.99997 38575 ft 462 kts 348°
2026-04-21 20:59 31.23063 99.99999 38560 ft 461 kts 348°
2026-04-21 21:00 31.29455 100.00000 38544 ft 458 kts 348°
2026-04-21 21:00 31.35883 99.99998 38546 ft 462 kts 348°
2026-04-21 21:01 31.42366 99.99998 38532 ft 465 kts 349°
2026-04-21 21:01 31.48788 100.00000 38529 ft 459 kts 349°
2026-04-21 21:02 31.55214 100.00000 38522 ft 460 kts 349°
2026-04-21 21:02 31.61645 99.99999 38514 ft 462 kts 349°
2026-04-21 21:03 31.68108 99.99998 38515 ft 463 kts 349°
2026-04-21 21:03 31.74645 99.99997 38491 ft 468 kts 349°
2026-04-21 21:04 31.81167 99.99998 38560 ft 468 kts 350°
2026-04-21 21:04 31.87707 99.99998 38524 ft 472 kts 350°
2026-04-21 21:05 31.94118 99.99290 38495 ft 446 kts 335°
2026-04-21 21:05 31.96995 99.98123 38526 ft 432 kts 326°
2026-04-21 21:05 31.99667 99.96540 38512 ft 426 kts 319°
2026-04-21 21:06 32.02032 99.94486 38496 ft 415 kts 309°
2026-04-21 21:06 32.04055 99.92093 38495 ft 410 kts 304°
2026-04-21 21:06 32.07676 99.86958 38486 ft 406 kts 300°
2026-04-21 21:07 32.11069 99.81665 38477 ft 406 kts 298°
2026-04-21 21:07 32.14404 99.76269 38486 ft 405 kts 298°
2026-04-21 21:08 32.17706 99.70853 38494 ft 405 kts 298°
2026-04-21 21:08 32.20995 99.65423 38470 ft 405 kts 298°
2026-04-21 21:09 32.24260 99.60017 38456 ft 407 kts 299°
2026-04-21 21:09 32.27557 99.54552 38479 ft 406 kts 298°
2026-04-21 21:10 32.30821 99.49131 38487 ft 404 kts 298°
2026-04-21 21:10 32.34073 99.43717 38487 ft 406 kts 299°
2026-04-21 21:11 32.37333 99.38287 38479 ft 406 kts 298°
2026-04-21 21:11 32.40617 99.32806 38507 ft 409 kts 298°
2026-04-21 21:12 32.43928 99.27275 38518 ft 411 kts 298°
2026-04-21 21:12 32.47222 99.21764 38518 ft 407 kts 298°
2026-04-21 21:13 32.50489 99.16287 38533 ft 411 kts 298°
2026-04-21 21:13 32.53796 99.10742 38526 ft 409 kts 298°
2026-04-21 21:14 32.57085 99.05214 38542 ft 409 kts 298°
2026-04-21 21:14 32.60382 98.99671 38560 ft 412 kts 299°
2026-04-21 21:15 32.63746 98.94204 38539 ft 411 kts 298°
2026-04-21 21:15 32.67115 98.88714 38530 ft 414 kts 298°
2026-04-21 21:16 32.70489 98.83211 38525 ft 412 kts 299°
2026-04-21 21:16 32.73859 98.77705 38533 ft 412 kts 299°
2026-04-21 21:17 32.77211 98.72220 38532 ft 411 kts 299°
2026-04-21 21:17 32.80585 98.66692 38519 ft 411 kts 299°
2026-04-21 21:18 32.83920 98.61220 38512 ft 411 kts 299°
2026-04-21 21:18 32.87296 98.55669 38492 ft 413 kts 299°
2026-04-21 21:19 32.90646 98.50160 38517 ft 410 kts 298°
2026-04-21 21:19 32.93989 98.44647 38521 ft 413 kts 299°
2026-04-21 21:20 32.97375 98.39108 38407 ft 414 kts 300°
2026-04-21 21:20 32.99074 98.36349 38545 ft 413 kts 299°
2026-04-21 21:20 33.00774 98.33581 38511 ft 413 kts 299°
2026-04-21 21:21 33.04148 98.28090 38520 ft 410 kts 299°
2026-04-21 21:21 33.07512 98.22605 38529 ft 412 kts 299°
2026-04-21 21:22 33.10909 98.17059 38502 ft 414 kts 298°
2026-04-21 21:22 33.14311 98.11496 38488 ft 412 kts 299°
2026-04-21 21:23 33.17676 98.05983 38480 ft 412 kts 299°
2026-04-21 21:23 33.21053 98.00442 38502 ft 414 kts 299°
2026-04-21 21:24 33.24433 97.94890 38489 ft 412 kts 299°
2026-04-21 21:24 33.27785 97.89374 38510 ft 411 kts 299°
2026-04-21 21:25 33.31159 97.83817 38507 ft 413 kts 299°
2026-04-21 21:25 33.34519 97.78272 38500 ft 412 kts 299°
2026-04-21 21:26 33.37898 97.72688 38499 ft 413 kts 299°
2026-04-21 21:26 33.41251 97.67139 38510 ft 412 kts 300°
2026-04-21 21:27 33.44607 97.61575 38503 ft 412 kts 299°
2026-04-21 21:27 33.47967 97.55996 38502 ft 413 kts 300°
2026-04-21 21:28 33.51315 97.50432 38512 ft 412 kts 299°
2026-04-21 21:29 33.56343 97.42055 38500 ft 410 kts 299°
2026-04-21 21:29 33.59678 97.36488 38506 ft 412 kts 299°
2026-04-21 21:30 33.63011 97.30917 38514 ft 412 kts 298°
2026-04-21 21:30 33.66350 97.25326 38532 ft 410 kts 299°
2026-04-21 21:31 33.69669 97.19762 38526 ft 410 kts 299°
2026-04-21 21:31 33.72997 97.14173 38522 ft 409 kts 299°
2026-04-21 21:32 33.76292 97.08630 38524 ft 409 kts 299°
2026-04-21 21:32 33.79606 97.03050 38520 ft 411 kts 299°
2026-04-21 21:33 33.82919 96.97461 38517 ft 409 kts 299°
2026-04-21 21:33 33.86217 96.91888 38514 ft 410 kts 299°
2026-04-21 21:34 33.89507 96.86323 38508 ft 409 kts 300°
2026-04-21 21:34 33.92802 96.80737 38513 ft 409 kts 299°
2026-04-21 21:35 33.96093 96.75151 38511 ft 408 kts 300°
2026-04-21 21:35 33.99383 96.69558 38503 ft 407 kts 300°
2026-04-21 21:36 34.02656 96.63985 38506 ft 410 kts 299°
2026-04-21 21:36 34.05944 96.58379 38523 ft 410 kts 299°
2026-04-21 21:37 34.09242 96.52746 38516 ft 411 kts 300°
2026-04-21 21:37 34.12590 96.47110 38498 ft 409 kts 300°
2026-04-21 21:38 34.15932 96.41565 38502 ft 410 kts 301°
2026-04-21 21:38 34.19288 96.35988 38495 ft 410 kts 301°
2026-04-21 21:39 34.22642 96.30404 38520 ft 408 kts 300°
2026-04-21 21:39 34.25961 96.24869 38504 ft 408 kts 300°
2026-04-21 21:40 34.29279 96.19328 38517 ft 408 kts 300°
2026-04-21 21:40 34.32615 96.13750 38501 ft 407 kts 300°
2026-04-21 21:41 34.35935 96.08187 38519 ft 408 kts 300°
2026-04-21 21:41 34.39249 96.02628 38494 ft 408 kts 301°
2026-04-21 21:42 34.42574 95.97041 38504 ft 408 kts 301°
2026-04-21 21:42 34.45909 95.91427 38497 ft 409 kts 301°
2026-04-21 21:43 34.49211 95.85860 38516 ft 409 kts 301°
2026-04-21 21:43 34.52528 95.80262 38519 ft 409 kts 301°
2026-04-21 21:44 34.55851 95.74644 38529 ft 409 kts 301°
2026-04-21 21:44 34.59163 95.69035 38526 ft 408 kts 301°
2026-04-21 21:45 34.62464 95.63432 38521 ft 410 kts 301°
2026-04-21 21:45 34.65767 95.57824 38515 ft 409 kts 301°
2026-04-21 21:46 34.69066 95.52210 38510 ft 409 kts 301°
2026-04-21 21:46 34.72366 95.46585 38501 ft 409 kts 301°
2026-04-21 21:47 34.75668 95.40949 38494 ft 410 kts 301°
2026-04-21 21:47 34.78974 95.35297 38489 ft 409 kts 301°
2026-04-21 21:48 34.82277 95.29641 38505 ft 410 kts 301°
2026-04-21 21:48 34.85577 95.23980 38501 ft 409 kts 301°
2026-04-21 21:49 34.88862 95.18339 38506 ft 409 kts 301°
2026-04-21 21:49 34.92151 95.12678 38500 ft 409 kts 301°
2026-04-21 21:50 34.95431 95.07026 38509 ft 409 kts 301°
2026-04-21 21:50 34.98716 95.01355 38504 ft 410 kts 301°
2026-04-21 21:51 35.02008 94.95664 38512 ft 410 kts 301°
2026-04-21 21:51 35.05292 94.89979 38507 ft 408 kts 301°
2026-04-21 21:52 35.08551 94.84325 38511 ft 409 kts 301°
2026-04-21 21:52 35.11844 94.78604 38519 ft 410 kts 301°
2026-04-21 21:53 35.15116 94.72910 38515 ft 410 kts 301°
2026-04-21 21:53 35.18406 94.67175 38506 ft 411 kts 301°
2026-04-21 21:54 35.21679 94.61461 38497 ft 410 kts 301°
2026-04-21 21:54 35.24948 94.55745 38500 ft 411 kts 301°
2026-04-21 21:55 35.28218 94.50019 38507 ft 411 kts 301°
2026-04-21 21:55 35.31484 94.44289 38496 ft 410 kts 301°
2026-04-21 21:56 35.34767 94.38519 38489 ft 411 kts 302°
2026-04-21 21:56 35.38029 94.32778 38499 ft 413 kts 301°
2026-04-21 21:57 35.41312 94.26990 38475 ft 411 kts 301°
2026-04-21 21:57 35.44569 94.21239 38479 ft 412 kts 301°
2026-04-21 21:58 35.47913 94.15521 38472 ft 412 kts 302°
2026-04-21 21:58 35.51267 94.09818 38477 ft 413 kts 303°
2026-04-21 21:59 35.54608 94.04126 38477 ft 414 kts 303°
2026-04-21 21:59 35.57985 93.98365 38478 ft 415 kts 303°
2026-04-21 22:00 35.61355 93.92604 38467 ft 414 kts 303°
2026-04-21 22:00 35.64712 93.86857 38468 ft 415 kts 303°
2026-04-21 22:01 35.68079 93.81083 38444 ft 415 kts 303°
2026-04-21 22:01 35.71427 93.75333 38432 ft 415 kts 303°
2026-04-21 22:02 35.74784 93.69555 38422 ft 415 kts 303°
2026-04-21 22:02 35.78144 93.63766 38434 ft 414 kts 303°
2026-04-21 22:03 35.81481 93.58003 38444 ft 416 kts 303°
2026-04-21 22:03 35.84849 93.52179 38456 ft 417 kts 303°
2026-04-21 22:04 35.88205 93.46367 38459 ft 416 kts 303°
2026-04-21 22:04 35.91564 93.40537 38482 ft 417 kts 303°
2026-04-21 22:05 35.94911 93.34721 38498 ft 416 kts 303°
2026-04-21 22:05 35.98264 93.28883 38523 ft 417 kts 303°
2026-04-21 22:06 36.01650 93.23094 38551 ft 417 kts 304°
2026-04-21 22:06 36.05107 93.17319 38534 ft 418 kts 304°
2026-04-21 22:07 36.08561 93.11536 38515 ft 417 kts 304°
2026-04-21 22:07 36.12020 93.05732 38531 ft 418 kts 304°
2026-04-21 22:08 36.15464 92.99944 38490 ft 418 kts 304°
2026-04-21 22:08 36.18894 92.94170 38494 ft 415 kts 304°
2026-04-21 22:09 36.22297 92.88431 38471 ft 416 kts 304°
2026-04-21 22:09 36.25729 92.82634 38458 ft 418 kts 304°
2026-04-21 22:10 36.29149 92.76849 38485 ft 416 kts 304°
2026-04-21 22:10 36.32574 92.71043 38500 ft 416 kts 304°
2026-04-21 22:11 36.36004 92.65220 38497 ft 418 kts 304°
2026-04-21 22:11 36.39413 92.59424 38499 ft 417 kts 304°
2026-04-21 22:12 36.42820 92.53618 38570 ft 416 kts 304°
2026-04-21 22:12 36.46238 92.47786 38546 ft 417 kts 304°
2026-04-21 22:13 36.49644 92.41964 38564 ft 416 kts 305°
2026-04-21 22:13 36.53036 92.36156 38531 ft 417 kts 304°
2026-04-21 22:14 36.56430 92.30334 38510 ft 416 kts 304°
2026-04-21 22:14 36.59824 92.24503 38523 ft 417 kts 304°
2026-04-21 22:15 36.63223 92.18654 38493 ft 417 kts 304°
2026-04-21 22:15 36.66618 92.12801 38489 ft 416 kts 304°
2026-04-21 22:16 36.69996 92.06967 38503 ft 415 kts 304°
2026-04-21 22:16 36.73380 92.01111 38488 ft 417 kts 304°
2026-04-21 22:17 36.76759 91.95257 38493 ft 416 kts 304°
2026-04-21 22:17 36.80133 91.89398 38497 ft 416 kts 304°
2026-04-21 22:18 36.83518 91.83512 38477 ft 417 kts 304°
2026-04-21 22:18 36.86886 91.77646 38476 ft 415 kts 304°
2026-04-21 22:19 36.90243 91.71786 38435 ft 417 kts 304°
2026-04-21 22:19 36.93608 91.65902 38447 ft 418 kts 304°
2026-04-21 22:20 36.97007 91.59951 38438 ft 418 kts 304°
2026-04-21 22:20 37.00394 91.54011 38425 ft 419 kts 305°
2026-04-21 22:21 37.03767 91.48083 38423 ft 418 kts 305°
2026-04-21 22:21 37.07135 91.42152 38419 ft 419 kts 305°
2026-04-21 22:22 37.10521 91.36180 38426 ft 420 kts 305°
2026-04-21 22:22 37.13898 91.30215 38441 ft 419 kts 304°
2026-04-21 22:23 37.17284 91.24222 38436 ft 420 kts 304°
2026-04-21 22:23 37.20638 91.18276 38444 ft 421 kts 304°
2026-04-21 22:24 37.24017 91.12272 38443 ft 421 kts 304°
2026-04-21 22:24 37.27391 91.06269 38424 ft 423 kts 304°
2026-04-21 22:25 37.30785 91.00221 38423 ft 422 kts 304°
2026-04-21 22:25 37.34163 90.94186 38422 ft 423 kts 304°
2026-04-21 22:26 37.37533 90.88158 38422 ft 422 kts 304°
2026-04-21 22:26 37.40897 90.82129 38418 ft 422 kts 304°
2026-04-21 22:27 37.44284 90.76047 38423 ft 423 kts 304°
2026-04-21 22:27 37.47652 90.69988 38407 ft 424 kts 304°
2026-04-21 22:28 37.51028 90.63904 38420 ft 422 kts 304°
2026-04-21 22:28 37.54393 90.57829 38404 ft 423 kts 304°
2026-04-21 22:29 37.57758 90.51743 38405 ft 423 kts 304°
2026-04-21 22:29 37.61100 90.45687 38401 ft 423 kts 304°
2026-04-21 22:30 37.64484 90.39544 38395 ft 423 kts 304°
2026-04-21 22:30 37.67852 90.33419 38406 ft 423 kts 304°
2026-04-21 22:31 37.71198 90.27321 38400 ft 423 kts 304°
2026-04-21 22:31 37.74535 90.21230 38425 ft 422 kts 304°
2026-04-21 22:32 37.77919 90.15158 38430 ft 423 kts 305°
2026-04-21 22:32 37.81328 90.09109 38410 ft 423 kts 304°
2026-04-21 22:33 37.84748 90.03027 38404 ft 422 kts 304°
2026-04-21 22:33 37.88126 89.97010 38429 ft 421 kts 304°
2026-04-21 22:34 37.91525 89.90944 38416 ft 422 kts 304°
2026-04-21 22:34 37.94915 89.84882 38434 ft 423 kts 304°
2026-04-21 22:35 37.98330 89.78766 38421 ft 423 kts 304°
2026-04-21 22:35 38.01732 89.72661 38431 ft 424 kts 304°
2026-04-21 22:36 38.06817 89.63508 38422 ft 424 kts 304°
2026-04-21 22:36 38.10210 89.57388 38412 ft 424 kts 304°
2026-04-21 22:37 38.13617 89.51229 38389 ft 425 kts 304°
2026-04-21 22:37 38.16998 89.45106 38407 ft 425 kts 304°
2026-04-21 22:38 38.20401 89.38932 38425 ft 426 kts 304°
2026-04-21 22:38 38.23809 89.32737 38422 ft 427 kts 304°
2026-04-21 22:39 38.27191 89.26577 38440 ft 426 kts 304°
2026-04-21 22:39 38.30584 89.20388 38410 ft 426 kts 304°
2026-04-21 22:40 38.33985 89.14170 38396 ft 427 kts 304°
2026-04-21 22:40 38.37360 89.07990 38390 ft 427 kts 304°
2026-04-21 22:41 38.40751 89.01767 38418 ft 428 kts 304°
2026-04-21 22:41 38.44149 88.95519 38398 ft 427 kts 304°
2026-04-21 22:42 38.47527 88.89298 38428 ft 427 kts 304°
2026-04-21 22:42 38.50902 88.83067 38362 ft 428 kts 304°
2026-04-21 22:43 38.54277 88.76827 38410 ft 426 kts 304°
2026-04-21 22:43 38.57653 88.70589 38376 ft 427 kts 305°
2026-04-21 22:44 38.61157 88.64520 38348 ft 427 kts 306°
2026-04-21 22:44 38.64681 88.58411 38339 ft 424 kts 306°
2026-04-21 22:45 38.68177 88.52335 38331 ft 426 kts 306°
2026-04-21 22:45 38.71695 88.46210 38305 ft 427 kts 306°
2026-04-21 22:46 38.75206 88.40087 38288 ft 426 kts 306°
2026-04-21 22:46 38.78694 88.33990 38308 ft 426 kts 306°
2026-04-21 22:47 38.82204 88.27844 38258 ft 426 kts 306°
2026-04-21 22:47 38.85681 88.21744 38196 ft 424 kts 306°
2026-04-21 22:48 38.89187 88.15582 38120 ft 425 kts 306°
2026-04-21 22:48 38.92663 88.09460 38122 ft 425 kts 306°
2026-04-21 22:49 38.96145 88.03316 38068 ft 425 kts 306°
2026-04-21 22:49 38.99629 87.97156 38032 ft 424 kts 306°
2026-04-21 22:50 39.03100 87.91008 38020 ft 424 kts 306°
2026-04-21 22:50 39.06544 87.84896 38017 ft 424 kts 306°
2026-04-21 22:51 39.09992 87.78768 38019 ft 424 kts 306°
2026-04-21 22:51 39.13468 87.72575 38029 ft 425 kts 306°
2026-04-21 22:52 39.16919 87.66415 38026 ft 422 kts 306°
2026-04-21 22:52 39.20357 87.60268 38027 ft 422 kts 306°
2026-04-21 22:53 39.23779 87.54137 38029 ft 422 kts 306°
2026-04-21 22:53 39.27211 87.47976 38029 ft 421 kts 306°
2026-04-21 22:54 39.30607 87.41868 38027 ft 421 kts 306°
2026-04-21 22:54 39.34025 87.35708 38032 ft 421 kts 306°
2026-04-21 22:55 39.37446 87.29531 38037 ft 421 kts 305°
2026-04-21 22:55 39.40854 87.23367 38036 ft 421 kts 305°
2026-04-21 22:56 39.44238 87.17234 38040 ft 421 kts 305°
2026-04-21 22:56 39.47641 87.11054 38036 ft 421 kts 305°
2026-04-21 22:57 39.51033 87.04882 38037 ft 420 kts 305°
2026-04-21 22:57 39.54418 86.98712 38035 ft 419 kts 305°
2026-04-21 22:58 39.57780 86.92570 38030 ft 419 kts 305°
2026-04-21 22:58 39.61151 86.86402 38030 ft 418 kts 305°
2026-04-21 22:59 39.64510 86.80242 38032 ft 418 kts 305°
2026-04-21 22:59 39.67864 86.74080 38031 ft 419 kts 305°
2026-04-21 23:00 39.71209 86.67923 38025 ft 418 kts 305°
2026-04-21 23:00 39.74549 86.61762 38026 ft 417 kts 305°
2026-04-21 23:01 39.77886 86.55597 38026 ft 416 kts 305°
2026-04-21 23:01 39.81216 86.49431 38030 ft 416 kts 305°
2026-04-21 23:02 39.84525 86.43292 38026 ft 415 kts 305°
2026-04-21 23:02 39.87831 86.37146 38029 ft 415 kts 305°
2026-04-21 23:03 39.91163 86.30940 38039 ft 417 kts 305°
2026-04-21 23:03 39.94490 86.24733 38032 ft 416 kts 305°
2026-04-21 23:04 39.97769 86.18602 38033 ft 415 kts 304°
2026-04-21 23:04 40.01085 86.12390 38034 ft 415 kts 304°
2026-04-21 23:05 40.04368 86.06226 38030 ft 414 kts 305°
2026-04-21 23:05 40.07645 86.00065 38035 ft 413 kts 305°
2026-04-21 23:06 40.10938 85.93880 38035 ft 412 kts 304°
2026-04-21 23:06 40.14213 85.87714 38031 ft 412 kts 305°
2026-04-21 23:07 40.17477 85.81558 38027 ft 413 kts 305°
2026-04-21 23:07 40.20771 85.75333 38026 ft 413 kts 305°
2026-04-21 23:08 40.24029 85.69166 38027 ft 412 kts 305°
2026-04-21 23:08 40.27273 85.63013 38025 ft 413 kts 305°
2026-04-21 23:09 40.30548 85.56786 38029 ft 414 kts 305°
2026-04-21 23:09 40.33803 85.50588 38030 ft 412 kts 305°
2026-04-21 23:10 40.37049 85.44394 38027 ft 412 kts 305°
2026-04-21 23:10 40.40304 85.38168 38029 ft 412 kts 305°
2026-04-21 23:11 40.43534 85.31980 38033 ft 410 kts 304°
2026-04-21 23:11 40.46758 85.25790 38033 ft 410 kts 304°
2026-04-21 23:12 40.49955 85.19642 38020 ft 411 kts 304°
2026-04-21 23:12 40.53179 85.13427 38020 ft 410 kts 305°
2026-04-21 23:13 40.56398 85.07210 38026 ft 410 kts 304°
2026-04-21 23:13 40.59582 85.01048 38018 ft 408 kts 304°
2026-04-21 23:14 40.62778 84.94852 38010 ft 410 kts 305°
2026-04-21 23:14 40.65995 84.88605 38017 ft 410 kts 304°
2026-04-21 23:15 40.69185 84.82394 38017 ft 408 kts 304°
2026-04-21 23:15 40.72368 84.76186 38010 ft 409 kts 304°
2026-04-21 23:16 40.75538 84.69988 38008 ft 408 kts 304°
2026-04-21 23:16 40.78701 84.63796 38014 ft 406 kts 304°
2026-04-21 23:17 40.81837 84.57640 38011 ft 407 kts 304°
2026-04-21 23:17 40.85000 84.51421 38012 ft 408 kts 305°
2026-04-21 23:18 40.88138 84.45241 38007 ft 401 kts 304°
2026-04-21 23:18 40.91249 84.39103 38000 ft 404 kts 304°
2026-04-21 23:19 40.94389 84.32895 38013 ft 403 kts 304°
2026-04-21 23:19 40.97506 84.26721 38010 ft 405 kts 304°
2026-04-21 23:20 41.00645 84.20493 38016 ft 403 kts 304°
2026-04-21 23:20 41.03743 84.14330 38013 ft 404 kts 304°
2026-04-21 23:21 41.06846 84.08148 38025 ft 401 kts 304°
2026-04-21 23:21 41.09911 84.02028 38014 ft 400 kts 304°
2026-04-21 23:22 41.12999 83.95848 38018 ft 400 kts 304°
2026-04-21 23:22 41.16069 83.89694 38021 ft 400 kts 304°
2026-04-21 23:23 41.19142 83.83520 37830 ft 402 kts 304°
2026-04-21 23:23 41.20663 83.80462 38191 ft 400 kts 304°
2026-04-21 23:23 41.22218 83.77332 37959 ft 404 kts 304°
2026-04-21 23:24 41.25296 83.71124 38042 ft 404 kts 304°
2026-04-21 23:24 41.28398 83.64851 38050 ft 403 kts 304°
2026-04-21 23:25 41.31470 83.58631 38046 ft 403 kts 304°
2026-04-21 23:25 41.34529 83.52424 38037 ft 403 kts 304°
2026-04-21 23:26 41.37604 83.46169 38045 ft 403 kts 304°
2026-04-21 23:26 41.40666 83.39932 38044 ft 403 kts 304°
2026-04-21 23:27 41.43736 83.33664 38049 ft 402 kts 303°
2026-04-21 23:27 41.46788 83.27421 38078 ft 402 kts 303°
2026-04-21 23:28 41.49838 83.21167 38066 ft 402 kts 303°
2026-04-21 23:28 41.52896 83.14884 38060 ft 403 kts 303°
2026-04-21 23:29 41.55931 83.08637 38076 ft 402 kts 303°
2026-04-21 23:29 41.58962 83.02384 38071 ft 401 kts 303°
2026-04-21 23:30 41.61988 82.96130 38060 ft 402 kts 303°
2026-04-21 23:30 41.65025 82.89838 38066 ft 402 kts 303°
2026-04-21 23:31 41.68339 82.83851 38074 ft 403 kts 315°
2026-04-21 23:31 41.72646 82.79082 38083 ft 401 kts 319°
2026-04-21 23:32 41.76969 82.74419 38071 ft 391 kts 319°
2026-04-21 23:32 41.79048 82.72174 38092 ft 377 kts 319°
2026-04-21 23:32 41.81065 82.70003 38074 ft 360 kts 319°
2026-04-21 23:33 41.82970 82.67954 38081 ft 343 kts 319°
2026-04-21 23:33 41.84800 82.65990 38055 ft 328 kts 319°
2026-04-21 23:33 41.86518 82.64143 38095 ft 312 kts 319°
2026-04-21 23:33 41.88192 82.62342 38069 ft 298 kts 318°
2026-04-21 23:34 41.89777 82.60639 38094 ft 283 kts 319°
2026-04-21 23:34 41.91280 82.59020 38076 ft 270 kts 318°
2026-04-21 23:34 41.92708 82.57484 38080 ft 255 kts 318°
2026-04-21 23:34 41.94058 82.56029 38069 ft 241 kts 318°
2026-04-21 23:35 41.95318 82.54668 38065 ft 226 kts 317°
2026-04-21 23:35 41.96505 82.53387 38062 ft 209 kts 317°
2026-04-21 23:35 41.97569 82.52214 38005 ft 190 kts 314°
2026-04-21 23:35 41.98344 82.50910 37349 ft 190 kts 271°
2026-04-21 23:36 41.97592 82.50025 31756 ft 428 kts 137°
2026-04-21 23:36 41.95545 82.53108 29248 ft 457 kts 117°
2026-04-21 23:36 41.94577 82.56042 32971 ft 295 kts 92°
2026-04-21 23:36 41.94233 82.58347 33489 ft 254 kts 82°
2026-04-21 23:37 41.94146 82.60983 30127 ft 362 kts 75°
2026-04-21 23:37 41.94391 82.64486 28667 ft 380 kts 75°
2026-04-21 23:37 41.94469 82.67499 30823 ft 280 kts 80°
2026-04-21 23:37 41.94245 82.69810 31295 ft 255 kts 90°
2026-04-21 23:38 41.93740 82.72395 28481 ft 365 kts 106°
2026-04-21 23:38 41.92505 82.75574 27227 ft 385 kts 129°